sat.trackr.live / text

‹ back to catalog

PRSS-1

NORAD 43530 · 2018-056B

PAYLOAD ACTIVE UNKNOWN

§ Identity

Operator
Country
PAKI
Launch date
2018-07-09
Launch site
JSC
Launch vehicle
Mass (kg)
RCS (m²)

External: N2YO · Heavens-Above · Gunter

§ Orbital elements

Epoch: 2026-09-20T04:24:55.334592Z

Period
97.16 min
Inclination
97.7728°
Eccentricity
0.0001753
Mean motion
14.82104220 rev/d
Perigee alt
621.5 km
Apogee alt
623.9 km
Semi-major
7,000.8 km
B*
9.4022e-6
RAAN
328.3833°
Arg perigee
80.8320°
Mean anomaly
279.3091°
Rev number
44,250

§ Raw data

PRSS-11 43530U 18056B   26263.18397378  .00000024  00000+0  94022-5 0  99972 43530  97.7728 328.3833 0001753  80.8320 279.3091 14.82104220442504

JSON: /api/v1/satellites/43530 · /tle

For live sub-satellite position, see the globe view (requires WebGL).

§ Visibility from observer

Set your observer location to see the next 7 days of passes ≥ 10°. The values pass through the URL so the page stays shareable.

No JS? Fill the form by hand. The geolocation button needs JavaScript.

§ Radio — SatNOGS DB

ModeDescriptionDownlinkUplink
FM S-band telemetry 2.275 GHz

1 transmitter · refreshed weekly from db.satnogs.org